EHI
0 0 0 0 0 0 0 0 0 0 0 0 0 0 0 0 0 0 0 0 0 0 0 0 0 0 0 0 0 0 0 0 0 0 0 0 0 0 0 0 0 0 0
0 0 0 0 0 0 0 0 0 0 0 0 0 0 0 0 0 0 0 0 0 0 0 0 0 0 0 0 0 0 0 0 0 0 0 0 0 0 0 0 0 0 0
0 0 0 0 0 0 0 0 0 0 0 0 0 0 0 0 0 0 0 0 0 0 0 0 0 0 0 0 0 0 0 0 0 0 0 0 0 0 0 0 0 0 0
0 0 0 0 0 0 0 0 0 0 0 0 0 0 0 0 0 0 0 0 0 0 0 0 0 0 0 0 0 0 0 0 0 0 0 0 0 0 0 0 0 0 0
0 0 0 0 0 0 0 0 0 0 0 0 0 0 0 0 0 0 0 0 0 0 0 0 0 0 0 0 0 0 0 0 0 0 0 0 0 0 0 0 0 0 0
0 0 0 0 0 0 0 0 0 0 0 0 0 0 0 0 0 0 0 0 0 0 0 0 0 0 0 0 0 0 0 0 0 0 0 0 0 0 0 0 0 0 0
0 0 0 0 0 0 0 0 0 0 0 0 0 0 0 0 0 0 0 0 0 0 0 0 0 0 0 0 0 0 0 0 0 0 0 0 0 0 0 0 0 0 0
0 0 0 0 0 0 0 0 0 0 0 0 0 0 0 0 0 0 0 0 0 0 0 0 0 0 0 0 0 0 0 0 0 0 0 0 0 0 0 0 0 0 0
0 0 0 0 0 0 0 0 0 0 0 0 0 0 0 0 0 0 0 0 0 0 0 0 0 0 0 0 0 0 0 0 0 0 0 0 0 0 0 0 0 0 0
0 0 0 0 0 0 0 0 0 0 0 0 0 0 0 0 0 0 0 0 0 0 0 0 0 0 0 0 0 0 0 0 0 0 0 0 0 0 0 0 0 0 0
0 0 0 0 0 0 0 0 0 0 0 0 0 0 0 0 0 0 0 0 0 0 0 0 0 0 0 0 0 0 0 0 0 0 0 0 0 0 0 0 0 0 0
0 0 0 0 0 0 0 0 0 0 0 0 0 0 0 0 0 0 0 0 0 0 0 0 0 0 0 0 0 0 0 0 0 0 0 0 0 0 0 0 0 0 0
0 0 0 0 0 0 0 0 0 0 0 0 0 0 0 0 0 0 0 0 0 0 0 0 0 0 0 0 0 0 0 0 0 0 0 0 0 0 0 0 0 0 0
0 0 0 0 0 0 0 0 0 0 0 0 0 0 0 0 0 0 0 0 0 0 0 0 0 0 0 0 0 0 0 0 0 0 0 0 0 0 0 0 0 0 0
0 0 0 0 0 0 0 0 0 0 0 0 0 0 0 0 0 0 0 0 0 0 0 0 0 0 0 0 0 0 0 0 0 0 0 0 0 0 0 0 0 0 0
0 0 0 0 0 0 0 0 0 0 0 0 0 0 0 0 0 0 0 0 0 0 0 0 0 0 0 0 0 0 0 0 0 0 0 0 0 0 0 0 0 0 0
0 0 0 0 0 0 0 0 0 0 0 0 0 0 0 0 0 0 0 0 0 0 0 0 0 0 0 0 0 0 0 0 0 0 0 0 0 0 0 0 0 0 0
0 0 0 0 0 0 0 0 0 0 0 0 0 0 0 0 0 0 0 0 0 0 0 0 0 0 0 0 0 0 0 0 0 0 0 0 0 0 0 0 0 0 0
0 0 0 0 0 0 0 0 0 0 0 0 0 0 0 0 0 0 0 0 0 0 0 0 0 0 0 0 0 0 0 0 0 0 0 0 0 0 0 0 0 0 0
0 0 0 0 0 0 0 0 0 0 0 0 0 0 0 0 0 0 0 0 0 0 0 0 0 0 0 0 0 0 0 0 0 0 0 0 0 0 0 0 0 0 0
0 0 0 0 0 0 0 0 0 0 0 0 0 0 0 0 0 0 0 0 0 0 0 0 0 0 0 0 0 0 0 0 0 0 0 0 0 0 0 0 0 0 0
0 0 0 0 0 0 0 0 0 0 0 0 0 0 0 0 0 0 0 0 0 0 0 0 0 0 0 0 0 0 0 0 0 0 0 0 0 0 0 0 0 0 0
0 0 0 0 0 0 0 0 0 0 0 0 0 0 0 0 0 0 0 0 0 0 0 0 0 0 0 0 0 0 0 0 0 0 0 0 0 0 0 0 0 0 0
0 0 0 0 0 0 0 0 0 0 0 0 0 0 0 0 0 0 0 0 0 0 0 0 0 0 0 0 0 0 0 0 0 0 0 0 0 0 0 0 0 0 0
0 0 0 0 0 0 0 0 0 0 0 0 0 0 0 0 0 0 0 0 0 0 0 0 0 0 0 0 0 0 0 0 0 0 0 0 0 0 0 0 0 0 0
0 0 0 0 0 0 0 0 0 0 0 0 0 0 0 0 0 0 0 0 0 0 0 0 0 0 0 0 0 0 0 0 0 0 0 0 0 0 0 0 0 0 0
Wind_Speed
1 1 1 1 0 1 1 1 1 0 0 1 1 1 1 1 1 1 1 2 2 2 2 2 3 3 2 2 2 2 2 2 3 2 1 1 1 1 2 2 2 2 3
1 1 1 1 1 1 0 1 1 1 1 1 1 1 1 1 1 2 2 2 2 3 2 2 2 2 3 2 3 3 3 2 3 3 2 1 2 2 2 2 2 2 2
1 1 1 0 1 1 1 1 1 1 1 1 1 1 2 2 2 2 2 2 2 3 3 3 3 3 3 3 3 3 2 2 2 2 2 1 1 1 2 2 2 2 3
1 1 1 1 2 1 1 1 1 1 1 1 1 2 2 2 2 2 2 2 2 3 3 4 4 4 4 4 3 3 3 2 2 2 2 2 2 2 1 2 2 2 3
1 2 2 2 1 1 1 1 1 1 1 1 1 1 2 2 2 3 3 3 3 3 3 3 4 5 5 4 4 4 4 3 2 2 2 2 2 2 2 2 2 3 3
1 2 2 1 1 1 1 1 1 1 1 1 2 2 2 2 3 3 3 3 3 3 4 3 3 4 5 6 6 6 6 5 4 3 3 3 4 3 2 2 1 2 3
1 2 2 1 1 1 1 1 1 1 1 1 2 2 2 3 3 3 3 3 3 3 4 3 3 3 4 4 5 5 6 7 7 5 5 5 4 4 3 2 3 3 4
1 1 2 2 2 1 1 1 2 1 1 2 2 2 2 3 4 4 3 2 2 3 4 4 4 4 4 4 4 4 4 4 5 5 5 6 5 4 5 4 3 3 3
1 2 2 2 2 2 2 2 2 2 2 2 2 3 3 4 4 4 3 2 2 3 4 4 5 5 7 6 4 4 4 4 4 6 6 6 7 7 5 2 2 2 3
3 3 2 2 2 3 3 3 2 2 3 2 2 3 3 4 4 4 4 2 2 3 3 3 6 6 7 7 5 5 5 5 2 2 3 4 4 5 6 4 4 3 3
2 2 1 2 2 3 3 2 2 2 2 2 3 3 3 4 4 5 5 2 3 3 3 3 3 7 8 9 7 6 7 5 3 3 3 2 2 3 3 3 4 4 4
2 2 2 2 2 1 2 2 2 2 2 2 2 2 2 3 4 5 6 6 4 3 3 3 4 7 7 8 7 7 8 5 2 2 3 3 3 3 3 3 3 4 4
1 2 2 1 1 1 1 2 1 1 2 2 2 3 3 2 3 6 6 6 6 3 3 6 6 7 7 5 7 8 6 3 3 3 4 4 4 3 2 2 2 3 3
2 2 2 1 1 1 1 1 2 2 2 2 3 3 3 3 3 3 3 3 4 3 3 4 6 7 5 5 5 4 3 4 4 4 4 3 2 2 3 2 3 2 2
2 2 2 1 1 2 2 2 3 3 4 4 4 4 4 4 5 7 5 3 3 3 3 2 2 2 2 3 3 3 3 3 3 3 3 3 3 3 3 3 3 3 3
2 2 2 1 1 2 2 3 4 5 7 8 8 7 5 7 8 9 9 9 9 8 5 3 4 4 4 4 4 4 3 4 4 4 4 4 4 4 4 3 3 3 4
3 3 2 2 2 2 2 2 3 4 5 6 7 8 8 8 9 9 10 9 9 8 5 4 4 4 5 5 4 4 4 4 4 4 5 5 4 4 4 4 4 4 5
3 3 3 3 2 2 3 3 3 3 4 3 5 7 8 9 9 9 8 6 5 4 4 5 5 5 5 5 5 5 4 4 4 4 5 5 5 5 5 5 5 5 5
3 2 3 3 3 3 3 3 3 4 4 4 3 4 6 7 8 8 6 4 4 4 4 5 5 5 5 5 5 5 5 5 5 4 5 5 5 5 5 5 5 7 6
3 5 4 3 3 3 3 3 3 3 4 4 4 4 3 3 3 4 4 4 5 5 5 5 5 5 5 5 5 5 5 5 5 5 5 5 5 5 6 7 6 6 6
3 3 5 3 3 3 3 3 4 4 4 5 5 6 7 5 5 5 5 5 5 5 5 5 5 5 5 5 5 5 6 5 5 5 5 5 5 5 5 6 6 6 5
3 3 3 3 3 3 4 4 4 5 5 6 5 6 10 6 5 5 6 6 5 5 5 5 5 5 5 5 5 6 6 6 6 5 6 6 5 6 5 5 5 5 5
3 3 3 3 3 6 5 4 4 5 5 5 5 5 5 5 5 6 6 6 5 5 5 5 6 6 5 5 6 6 7 7 6 6 6 6 6 5 5 5 6 5 5
3 4 4 4 4 4 4 4 4 5 5 5 6 6 6 6 6 6 6 5 5 5 5 5 6 8 9 7 5 6 6 6 6 6 7 7 6 5 5 5 6 6 5
3 3 4 4 4 4 4 5 5 5 5 5 6 6 6 6 6 6 5 5 6 6 6 6 6 7 9 10 8 7 9 12 10 7 6 6 6 6 6 6 5 5 5
3 4 4 4 4 4 4 5 5 5 5 6 6 6 6 6 6 6 5 5 5 5 6 6 7 8 8 8 9 10 12 13 12 11 7 5 6 6 6 5 6 5 5
Wind_Direction
127 129 118 120 121 118 142 191 175 155 160 166 170 161 164 158 155 149 155 166 171 183 185 191 210 190 185 190 184 185 192 186 227 263 250 264 253 271 306 311 310 309 309
166 145 138 119 107 120 187 229 178 190 213 193 172 169 189 182 180 172 180 178 189 197 196 192 216 194 195 194 187 194 199 194 199 244 276 280 266 256 273 291 304 304 295
165 145 135 147 167 209 234 236 181 182 212 199 174 192 204 204 196 195 193 192 201 212 205 201 214 195 204 201 193 196 199 201 192 210 255 269 278 272 290 294 291 296 299
174 162 181 213 215 221 228 233 218 197 195 215 214 216 214 214 208 201 195 199 206 220 220 213 214 207 208 205 199 200 195 193 191 204 240 258 268 274 263 283 301 303 299
179 190 212 218 213 206 209 238 235 208 207 216 222 228 219 214 214 203 195 201 209 224 229 220 218 221 219 217 207 199 192 195 198 211 236 258 260 251 250 250 276 298 290
200 226 225 209 199 200 209 214 208 213 217 200 220 219 220 232 242 229 212 205 213 220 230 230 228 231 236 241 233 217 203 198 203 208 231 238 245 240 239 242 266 294 289
201 219 220 207 204 221 213 197 221 231 237 231 227 223 228 243 262 258 241 214 216 225 229 229 238 238 237 227 238 238 231 230 220 209 219 229 229 224 216 237 242 249 258
215 227 222 205 211 222 214 232 243 240 240 236 236 233 235 253 267 267 263 225 221 231 231 227 226 235 229 224 220 227 228 234 234 224 217 224 227 220 210 218 233 260 276
250 250 239 210 207 217 229 242 243 237 250 241 231 230 234 253 265 265 267 226 232 242 238 230 227 228 240 240 223 228 243 253 258 251 246 242 242 240 227 191 207 247 277
254 256 246 217 208 220 228 236 240 240 251 254 244 239 233 240 257 266 266 226 235 250 252 245 245 243 243 243 222 217 235 243 229 249 256 255 242 235 236 216 203 220 251
272 276 261 237 226 229 230 231 228 234 252 261 254 256 243 246 255 262 265 238 224 237 249 255 254 259 253 248 239 224 235 238 214 214 228 235 231 227 227 222 212 209 225
285 282 269 257 248 241 222 236 225 212 234 259 262 273 262 258 257 260 267 264 253 236 246 249 252 262 265 261 251 240 242 243 212 213 225 234 235 239 235 227 224 224 230
291 284 272 269 257 240 223 233 240 222 227 248 246 259 268 256 254 265 273 273 269 259 248 258 265 267 268 265 255 249 240 220 208 222 233 239 233 228 226 238 245 237 245
285 288 279 268 279 275 253 231 231 235 237 243 242 246 254 254 246 243 246 254 265 268 263 266 275 276 271 264 261 253 234 220 218 225 233 237 231 220 225 226 238 238 255
280 284 284 267 254 267 263 239 233 237 229 232 235 232 236 251 250 255 258 250 238 241 261 262 262 261 252 250 253 246 233 230 234 227 228 234 234 234 240 227 225 229 242
268 277 273 262 253 256 271 286 259 249 262 257 250 246 249 252 263 268 270 272 274 271 271 253 252 250 250 247 245 247 241 235 235 234 233 234 234 235 240 234 230 236 248
250 263 262 253 248 248 252 260 283 291 274 270 266 264 264 265 269 272 272 271 269 270 262 249 247 248 250 247 242 241 245 242 231 228 233 233 231 233 234 235 234 242 248
252 256 254 250 247 245 247 251 255 269 287 288 280 274 273 272 274 275 276 278 268 259 244 247 248 247 248 248 244 242 244 239 233 233 232 230 229 231 233 234 234 238 245
261 261 256 253 252 251 253 253 255 258 265 275 285 287 281 279 280 274 272 253 250 253 250 251 249 247 248 250 248 243 239 237 233 231 233 231 229 231 236 237 237 238 240
263 267 267 257 256 258 257 257 258 258 262 265 268 270 274 272 266 263 250 240 244 252 254 254 252 248 247 250 248 242 239 238 235 234 235 234 231 231 235 236 236 236 238
257 265 268 263 256 256 256 257 258 259 261 263 264 266 267 262 259 258 254 248 245 249 251 253 253 252 247 245 245 243 240 241 239 236 234 233 231 234 235 235 237 236 236
249 253 255 255 258 259 261 257 258 260 262 265 270 274 274 267 260 260 258 255 250 246 244 246 249 247 243 240 240 241 241 241 237 234 235 235 233 234 234 236 235 232 228
249 255 262 264 264 270 274 265 261 262 265 267 270 272 270 262 261 260 260 258 254 251 246 244 249 251 245 241 236 234 236 238 235 231 234 235 232 231 233 235 233 231 229
248 252 259 265 266 264 265 267 266 266 267 269 270 270 268 266 266 267 265 263 259 255 249 246 247 249 250 249 244 237 236 237 234 233 232 232 231 232 232 232 231 228 226
247 252 257 259 263 265 267 269 268 268 270 272 272 272 273 272 272 271 270 266 263 261 257 251 249 248 249 249 248 244 243 244 243 240 234 232 231 231 230 231 227 222 224
251 254 257 258 259 262 265 268 270 271 271 273 274 274 274 274 274 273 272 269 267 265 263 258 251 250 250 251 252 251 251 252 249 244 238 231 228 228 222 224 219 218 218